Location: Nairn
(57.5833°N, 3.8667°W)
Time: 22:34:19
(UTC+00:00)

Altair - All Passes

Search period start: 25 November 2020 00:00
Search period end: 05 December 2020 00:00
Orbit: 1502 x 1682 km, 47.2° (Epoch: 25 November)

Date Brightness Start Highest point End Pass type
(mag) Time Alt. Az. Time Alt. Az. Time Alt. Az.
25 Nov - 00:24:03 10° WSW 00:32:35 44° S 00:41:07 10° ESE night (unlit)
25 Nov - 02:27:42 10° W 02:35:49 37° SSW 02:44:02 10° SE visible
25 Nov - 04:32:34 10° W 04:38:24 19° SW 04:44:19 10° S visible
25 Nov - 19:58:41 10° SSE 20:02:13 13° SE 20:05:44 10° ESE visible
25 Nov - 21:56:41 10° SSW 22:04:25 31° SSE 22:12:05 10° E night (unlit)
25 Nov - 23:58:59 10° WSW 00:07:31 44° S 00:16:01 10° ESE night (unlit)
26 Nov - 02:02:35 10° W 02:10:47 38° SSW 02:19:02 10° SE visible
26 Nov - 04:07:17 10° W 04:13:25 20° SW 04:19:37 10° S visible
26 Nov - 19:34:37 10° SE 19:37:16 11° SE 19:39:56 10° ESE visible
26 Nov - 21:31:46 10° SSW 21:39:24 30° SSE 21:46:56 10° E visible
26 Nov - 23:33:56 10° WSW 23:42:27 44° S 23:50:56 10° ESE night (unlit)
27 Nov - 01:37:28 10° W 01:45:44 39° SSW 01:54:02 10° SE visible
27 Nov - 03:42:02 10° W 03:48:25 22° SW 03:54:54 10° S visible
27 Nov - 19:11:10 10° SE 19:12:20 10° SE 19:13:31 10° ESE visible
27 Nov - 21:06:53 10° SSW 21:14:22 29° SSE 21:21:47 10° E visible
27 Nov - 23:08:52 10° WSW 23:17:23 43° S 23:25:50 10° ESE night (unlit)
28 Nov - 01:12:21 10° W 01:20:41 40° SSW 01:29:01 10° SE night (unlit)
28 Nov - 03:16:48 10° W 03:23:26 23° SW 03:30:08 10° S visible
28 Nov - 20:42:00 10° SSW 20:49:21 27° SSE 20:56:37 10° E visible
28 Nov - 22:43:49 10° WSW 22:52:19 43° S 23:00:45 10° ESE night (unlit)
29 Nov - 00:47:15 10° W 00:55:37 41° SSW 01:03:59 10° SE night (unlit)
29 Nov - 02:51:36 10° W 02:58:26 24° SW 03:05:21 10° SSE visible
29 Nov - 20:17:08 10° SSW 20:24:21 26° SE 20:31:26 10° E visible
29 Nov - 22:18:46 10° SW 22:27:15 42° SSE 22:35:39 10° ESE visible
30 Nov - 00:22:08 10° WSW 00:30:34 42° SSW 00:38:58 10° SE night (unlit)
30 Nov - 02:26:24 10° W 02:33:26 26° SW 02:40:32 10° SSE night (unlit)
30 Nov - 19:52:18 10° SSW 19:59:20 25° SE 20:06:15 10° E visible
30 Nov - 21:53:44 10° SW 22:02:11 41° SSE 22:10:32 10° E visible
30 Nov - 23:57:02 10° WSW 00:05:29 43° S 00:13:55 10° SE night (unlit)
01 Dec - 02:01:12 10° W 02:08:26 27° SW 02:15:41 10° SSE night (unlit)
01 Dec - 19:27:30 10° S 19:34:20 23° SE 19:41:03 10° E visible
01 Dec - 21:28:41 10° SW 21:37:08 40° SSE 21:45:26 10° E visible
01 Dec - 23:31:56 10° WSW 23:40:26 43° S 23:48:53 10° ESE night (unlit)
02 Dec - 01:36:02 10° W 01:43:25 28° SSW 01:50:49 10° SSE night (unlit)
02 Dec - 19:02:43 10° S 19:09:20 22° SE 19:15:50 10° E visible
02 Dec - 21:03:40 10° SW 21:12:05 40° SSE 21:20:20 10° E visible
02 Dec - 23:06:49 10° WSW 23:15:22 44° S 23:23:50 10° ESE visible
03 Dec - 01:10:52 10° W 01:18:24 30° SSW 01:25:56 10° SSE night (unlit)
03 Dec - 03:18:06 10° WSW 03:20:29 11° SW 03:22:51 10° SW night (unlit)
03 Dec - 18:37:59 10° S 18:44:20 21° SE 18:50:35 10° E visible
03 Dec - 20:38:38 10° SW 20:47:01 39° SSE 20:55:14 10° E visible
03 Dec - 22:41:44 10° WSW 22:50:18 44° S 22:58:47 10° ESE visible
04 Dec - 00:45:42 10° W 00:53:23 31° SSW 01:01:03 10° SSE night (unlit)
04 Dec - 02:52:12 10° WSW 02:55:32 12° SW 02:58:53 10° SSW night (unlit)
04 Dec - 18:13:16 10° S 18:19:21 19° SE 18:25:20 10° E visible
04 Dec - 20:13:38 10° SW 20:21:58 38° SSE 20:30:07 10° E visible
04 Dec - 22:16:38 10° WSW 22:25:14 45° S 22:33:44 10° ESE visible
